This demonstration page uses our WeatherBlox Daily Observations layout. Learn more.

Left ArrowRight Arrow

Hourly Observations for July 21, 2015

Temp ( °F °C ) Dew Point ( °F °C ) Humidity (%) Winds ( mph kmh ) Pressure ( in mb ) Visibility ( mi km ) Precip ( " mm )
12:52 am 00:52 Clear 73 22.8 70 21.1 90 90 Calm 29.84 1011 10 16 0.00 0.00
1:52 am 01:52 Clear 72 22.2 69 20.6 91 91 Calm 29.86 1011 10 16 0.00 0.00
2:52 am 02:52 Clear 71 21.7 68 20 90 90 Calm 29.87 1011 10 16 0.00 0.00
3:52 am 03:52 Clear 72 22.2 69 20.6 91 91 Calm 29.87 1012 10 16 0.00 0.00
4:52 am 04:52 Clear 72 22.2 69 20.6 91 91 Calm 29.88 1012 10 16 0.00 0.00
5:52 am 05:52 Clear 72 22.2 69 20.6 91 91 Calm 29.90 1012 10 16 0.00 0.00
6:52 am 06:52 Sunny 73 22.8 69 20.6 87 87 Calm 29.91 1013 10 16 0.00 0.00
7:52 am 07:52 Mostly Cloudy 74 23.3 70 21.1 88 88 NNE 7 11 29.92 1013 10 16 0.00 0.00
8:52 am 08:52 Sunny 74 23.3 69 20.6 85 85 NNE 8 13 29.93 1014 10 16 0.00 0.00
9:52 am 09:52 Mostly Cloudy 76 24.4 68 20 77 77 ENE 6 9 29.94 1014 10 16 0.00 0.00
10:47 am 10:47 Cloudy 79 26 70 21 74 74 ENE 5 7 29.94 1014 10 16 0.00 0.00
10:52 am 10:52 Cloudy 79 26.1 70 21.1 74 74 NE 3 6 29.95 1014 10 16 0.00 0.00
11:09 am 11:09 Mostly Cloudy 80 26.7 70 21.1 71 71 NNE 8 13 29.91 1013 10 16 0.00 0.00
11:52 am 11:52 Mostly Sunny 81 27.2 68 20 65 65 NE 8 13 29.93 1014 10 16 0.00 0.00
12:52 pm 12:52 Mostly Cloudy 81 27.2 68 20 65 65 NNE 10 17 29.92 1013 10 16 0.00 0.00
1:34 pm 13:34 Cloudy 82 28 68 20 62 62 NE 10 17 29.91 1013 10 16 0.00 0.00
1:42 pm 13:42 Cloudy 81 27 68 20 66 66 NE 8 13 29.91 1013 10 16 0.00 0.00
1:52 pm 13:52 Cloudy 81 27.2 67 19.4 62 62 NE 7 11 29.92 1013 10 16 0.00 0.00
2:52 pm 14:52 Mostly Sunny 83 28.3 68 20 61 61 NE 13 20 29.89 1012 10 16 0.00 0.00
3:52 pm 15:52 Mostly Cloudy 82 27.8 68 20 63 63 NNE 10 17 29.89 1012 10 16 0.00 0.00
4:52 pm 16:52 Partly Cloudy 82 27.8 67 19.4 60 60 NNE 10 17 29.87 1012 10 16 0.00 0.00
5:52 pm 17:52 Cloudy 80 26.7 67 19.4 64 64 VRB 6 9 29.89 1012 10 16 0.00 0.00
6:52 pm 18:52 Mostly Cloudy 80 26.7 68 20 67 67 NE 6 9 29.88 1012 10 16 0.00 0.00
7:52 pm 19:52 Sunny 77 25 67 19.4 71 71 NNE 9 15 29.87 1012 10 16 0.00 0.00
8:52 pm 20:52 Clear 73 22.8 65 18.3 76 76 NNE 9 15 29.89 1012 10 16 0.00 0.00
9:52 pm 21:52 Clear 72 22.2 61 16.1 68 68 NE 10 17 29.90 1013 10 16 0.00 0.00
10:52 pm 22:52 Clear 71 21.7 62 16.7 73 73 NE 6 9 29.91 1013 10 16 0.00 0.00
11:52 pm 23:52 Mostly Cloudy 71 21.7 63 17.2 76 76 ENE 6 9 29.92 1013 10 16 0.00 0.00

Powered by AerisWeather